OneWeb SL0294

operational
NORAD ID: 49083 Int'l Des: 2021-075 Owner: ONEWEBN Country: UK Constellation: oneweb
LEOCIRCULARPOLARONEWEB_TYPE

关于 OneWeb SL0294

正在加载描述...

实时位置

正在加载3D地球...

即将过境

高度历史

Altitude vs Time

uPlot chart will show altitude changes over time

两行轨道根数

1 49083U 21075J 25258.11326805 .00000029 00000-0 44178-4 0 9996
2 49083 87.8903 45.3045 0001681 112.9425 247.1881 13.12442101198493
Epoch: Sep 15, 2025 • Age: 12 hours

当前状态

高度 1241.7 km
速度 7.23 km/s
星下点 -71.73°S, 176.58°E
发射日期 Aug 21, 2021
运行时间 4 years
类型 internet

技术详情

分类 Payload
质量 148.00 kg
干质量 140.00 kg
总质量 148.00 kg
长度 1.30 m
直径 1.00 m
跨度 5.00 m
形状 Trapezoid+2 pan
制造商 ONEWUS
平台类型 ARROW
阶段状态 In Orbit
所有者/国家 ONEWEBN/UK

大型星座

Loading constellations...